Wind_Speed
3 4 3 3 3 3 3 3 4 3 3 4 4 5 6 6 6 6 6 7 7 8 8 9 9 9 9 9 8 9 9 9 10 9 9 10 10 9 8 8 8 8 8
4 4 3 3 4 4 4 5 4 4 4 4 5 6 6 6 7 6 6 7 7 7 8 9 10 10 10 9 10 10 10 10 10 10 10 10 10 10 9 9 10 10 9
4 3 3 4 4 4 4 5 5 5 5 6 6 6 7 7 7 7 7 8 7 8 9 10 11 11 10 10 10 11 11 11 10 11 11 11 11 11 11 11 11 11 11
3 3 3 4 5 5 5 6 6 6 6 6 6 7 7 7 8 8 9 9 9 8 8 8 10 10 10 10 10 11 11 11 11 11 12 12 12 12 12 12 12 12 11
3 3 3 4 5 5 5 6 7 7 7 7 7 7 8 8 8 9 9 9 8 7 7 6 8 9 9 10 10 10 10 11 11 11 12 12 13 13 13 13 13 13 13
3 4 4 4 5 5 5 5 6 7 7 7 7 7 8 8 8 9 9 8 7 7 7 7 7 8 9 9 10 10 10 11 12 12 11 12 12 13 13 13 13 13 13
4 4 4 5 5 5 5 5 5 6 6 7 7 7 8 8 9 9 8 7 7 7 7 8 8 9 10 10 10 11 10 10 11 12 12 12 12 13 13 13 14 14 14
3 4 4 4 5 4 4 4 4 5 6 6 6 7 7 7 8 8 7 7 8 8 8 9 9 9 10 10 10 10 11 11 11 10 11 12 12 14 14 14 14 14 15
4 4 3 4 4 4 4 4 4 4 5 5 5 5 5 6 7 7 7 7 8 8 8 8 8 8 9 10 11 11 11 11 11 11 11 12 13 14 15 15 15 15 15
4 4 4 5 5 5 5 4 4 4 4 4 4 5 5 5 6 7 7 6 7 8 8 8 8 8 9 10 11 11 12 12 12 12 13 13 13 13 14 15 15 16 16
4 4 4 5 5 5 4 4 4 4 3 4 4 5 5 6 6 6 7 7 7 7 7 8 9 9 9 10 11 11 12 12 12 12 13 14 14 14 14 14 15 16 16
5 4 4 5 5 5 4 4 4 4 4 4 4 5 5 5 6 6 7 7 7 7 8 8 8 9 9 9 10 10 11 11 11 12 12 13 14 14 15 15 15 15 15
5 5 5 5 5 5 4 4 4 4 4 4 5 4 5 5 6 6 7 7 8 7 8 8 8 8 9 9 9 9 10 10 11 11 12 13 13 14 15 15 14 14 15
5 5 5 5 4 5 5 5 4 4 4 4 4 5 5 5 6 6 7 7 7 8 8 8 8 8 8 8 9 10 10 11 11 11 12 13 13 13 14 15 14 14 14
5 5 5 5 5 5 4 4 4 4 4 4 4 5 5 5 6 5 6 6 7 8 8 8 8 8 8 7 8 8 8 9 10 10 11 12 12 12 13 14 13 13 13
5 5 5 5 5 4 4 4 4 4 4 4 5 5 5 5 5 6 6 5 6 7 8 7 8 8 7 7 7 7 7 8 9 9 10 11 12 12 13 13 13 13 13
5 5 5 5 5 4 4 4 4 4 4 5 5 5 6 6 6 6 5 5 5 6 7 7 7 7 7 7 7 7 7 8 8 9 10 10 11 12 13 13 13 13 14
5 5 5 5 4 4 5 4 5 4 4 5 5 5 5 5 6 6 5 5 6 6 6 6 6 6 6 6 7 7 7 7 8 9 10 10 10 11 12 13 14 14 14
5 5 5 5 5 5 5 5 5 5 5 5 5 6 6 5 5 6 5 5 6 6 6 6 6 5 5 6 7 7 7 7 8 9 9 10 10 11 11 12 13 13 13
5 5 5 5 5 5 5 5 5 5 5 5 5 6 6 5 6 6 6 6 6 6 6 6 6 6 6 6 6 7 8 8 8 9 9 10 10 10 11 12 12 12 12
6 6 6 5 5 5 5 6 5 5 5 5 5 5 5 5 5 6 6 6 6 6 6 6 6 6 7 7 6 7 8 8 8 9 9 10 10 10 11 11 11 12 12
6 7 6 6 6 6 6 7 6 5 5 5 5 4 5 5 5 5 5 5 5 5 6 6 6 7 7 7 7 7 7 8 8 9 9 10 10 11 12 12 12 12 12
8 8 7 6 6 6 7 7 7 6 6 6 5 5 5 5 5 4 5 5 6 6 6 7 7 7 7 7 8 8 8 8 8 9 9 9 10 11 12 13 12 12 12
8 8 8 7 7 8 8 7 7 6 6 5 5 5 5 5 5 5 5 5 6 6 7 7 7 7 8 9 8 8 9 10 10 10 10 10 10 11 11 11 12 12 12
8 8 8 7 8 8 8 8 7 7 7 6 6 5 5 5 5 5 5 5 5 6 6 6 7 8 8 9 8 8 9 9 10 11 11 11 11 10 10 10 10 11 12
9 9 8 8 8 8 8 7 7 7 7 7 7 6 6 6 5 5 5 6 6 6 6 7 8 9 9 9 9 9 10 10 10 10 11 11 10 10 10 10 11 11 11
Wind_Direction
307 299 286 286 288 282 272 262 245 242 235 237 241 250 238 232 235 235 234 238 240 241 240 239 236 235 234 235 236 234 229 222 219 219 219 219 221 224 225 228 232 231 234
309 303 282 277 279 274 267 267 259 241 245 247 252 253 243 239 240 239 245 248 247 248 248 248 242 238 236 235 236 235 232 229 224 223 224 223 225 230 231 232 232 233 235
318 309 282 275 274 274 273 266 267 259 252 255 256 252 244 240 242 240 247 253 257 262 264 257 245 236 235 231 234 235 234 234 232 231 228 230 233 235 237 236 234 234 237
314 309 289 285 281 281 274 267 268 258 257 262 262 256 248 246 247 247 250 254 260 267 270 260 240 231 230 233 232 231 233 234 238 235 235 235 237 239 240 239 237 237 238
309 316 307 312 300 288 280 271 265 259 258 261 268 262 256 254 251 248 252 252 256 261 261 251 236 233 233 230 227 229 234 236 241 238 238 239 239 241 244 244 242 242 241
317 318 312 311 308 298 294 280 269 266 264 263 266 264 256 253 252 250 250 248 255 256 251 246 236 235 232 231 231 236 240 240 238 238 241 243 242 244 245 246 247 247 247
322 318 311 308 303 303 303 293 274 266 267 263 265 263 258 252 248 248 247 244 252 253 250 252 249 241 239 236 236 237 241 241 237 240 240 243 244 246 248 249 250 252 254
325 317 313 314 311 305 298 298 288 271 264 261 262 261 259 255 252 248 248 251 254 249 251 249 247 245 242 238 239 239 243 245 241 243 245 249 249 251 253 251 250 253 255
330 316 308 313 313 307 297 295 294 284 273 266 265 265 264 258 255 252 253 257 255 252 248 246 245 246 244 242 244 246 245 245 246 246 247 251 253 253 252 250 251 255 256
333 325 315 311 311 307 300 298 298 291 283 275 268 266 268 264 257 251 253 255 257 255 255 254 250 250 244 243 246 247 246 245 247 248 251 253 256 254 251 252 255 256 258
334 333 329 326 320 313 304 300 297 293 289 283 275 272 270 264 256 249 249 254 257 256 256 253 253 252 249 249 250 249 250 251 252 252 253 253 255 255 254 256 257 256 257
328 331 331 328 324 316 306 299 294 292 287 281 278 274 271 264 256 253 251 255 259 258 256 258 253 256 253 253 248 247 249 251 251 253 254 253 254 256 256 257 257 258 257
328 328 329 328 325 318 307 305 303 297 290 282 274 266 271 266 263 260 256 257 262 265 264 263 263 263 257 256 253 251 248 250 253 254 255 254 254 255 259 258 259 259 258
328 328 332 335 328 320 306 302 296 293 294 283 272 274 275 271 265 264 260 261 264 267 265 266 267 269 261 256 256 259 256 253 254 256 255 255 254 255 258 260 260 261 262
328 331 335 337 330 323 314 305 301 294 292 279 275 278 281 280 270 271 267 263 265 269 269 270 271 273 260 258 259 262 265 262 262 261 259 257 257 255 258 259 260 260 264
326 331 332 334 332 327 318 312 306 300 295 285 284 290 286 285 275 270 268 268 267 269 270 273 278 275 266 259 262 265 269 270 271 268 267 265 262 259 260 259 261 263 265
319 325 326 330 333 337 329 318 309 298 293 290 290 291 288 286 276 273 271 271 274 272 273 271 279 283 273 267 268 272 273 272 271 270 270 268 263 262 261 260 262 265 265
311 313 316 322 327 330 328 319 310 304 301 298 299 295 287 284 275 271 271 272 275 280 288 280 281 286 283 275 270 276 275 271 272 271 272 270 265 264 264 262 264 265 266
310 311 315 318 320 321 324 325 312 307 307 303 300 296 291 284 278 276 275 277 275 278 286 289 285 284 291 283 271 272 275 273 278 279 276 276 273 269 267 266 267 269 267
307 308 315 315 316 319 323 324 316 313 310 304 301 301 298 290 284 282 283 282 282 278 279 284 287 289 293 291 278 275 275 278 280 279 277 275 274 272 271 269 270 272 272
303 302 309 313 318 325 328 326 318 315 312 306 301 301 298 294 287 285 281 281 281 279 280 284 285 289 288 287 282 281 281 281 280 278 272 273 274 272 271 271 271 273 273
300 300 301 306 310 315 320 320 315 311 306 304 301 307 304 298 289 284 281 279 275 278 282 284 288 291 289 287 283 284 284 282 282 280 278 276 277 274 275 274 274 274 274
303 303 305 305 304 308 312 313 312 307 303 302 298 302 308 302 286 283 275 270 274 279 284 285 287 288 290 290 290 291 287 285 286 284 283 282 280 276 273 273 270 269 272
302 302 302 305 303 307 311 308 312 307 303 305 306 307 305 300 288 287 280 277 279 284 288 292 291 288 289 291 291 291 290 287 283 283 284 286 286 280 275 274 272 271 271
298 297 296 299 300 303 306 306 308 310 305 303 303 306 308 308 303 300 294 289 288 289 293 295 296 290 291 293 290 288 291 289 286 284 285 284 285 283 281 277 275 274 272
295 296 295 293 296 301 306 307 308 311 312 308 301 302 304 302 304 303 301 297 293 292 294 297 298 292 289 288 289 290 289 290 289 288 288 285 283 284 284 280 278 277 276
Height
5882 5881 5880 5880 5879 5878 5878 5878 5877 5877 5877 5877 5876 5876 5876 5876 5876 5876 5876 5876 5876 5875 5875 5876 5876 5877 5877 5878 5878 5879 5880 5880 5881 5881 5882 5883 5883 5884 5884 5885 5885 5885 5885
5881 5880 5879 5879 5878 5878 5877 5877 5876 5876 5876 5876 5876 5875 5875 5875 5875 5875 5875 5874 5874 5874 5873 5873 5874 5875 5875 5876 5877 5877 5878 5879 5880 5880 5881 5881 5882 5883 5883 5884 5884 5884 5884
5880 5879 5878 5877 5877 5876 5876 5876 5876 5876 5875 5875 5874 5874 5874 5874 5873 5873 5873 5872 5872 5872 5870 5869 5870 5872 5873 5874 5874 5876 5877 5878 5878 5879 5879 5880 5880 5881 5882 5882 5882 5883 5883
5879 5878 5877 5876 5876 5875 5875 5875 5875 5874 5874 5874 5873 5873 5873 5873 5872 5872 5871 5871 5871 5870 5867 5865 5866 5869 5871 5872 5872 5874 5875 5876 5877 5877 5878 5878 5879 5879 5880 5880 5881 5881 5881
5878 5877 5877 5876 5875 5874 5874 5873 5873 5873 5873 5872 5872 5872 5872 5871 5871 5871 5870 5870 5870 5869 5867 5866 5867 5868 5869 5870 5871 5872 5873 5874 5874 5875 5876 5876 5877 5877 5878 5878 5878 5879 5879
5877 5877 5876 5875 5874 5873 5872 5872 5872 5871 5871 5871 5871 5870 5870 5870 5870 5870 5869 5869 5869 5868 5867 5867 5867 5867 5868 5868 5869 5870 5871 5872 5872 5873 5874 5874 5875 5875 5876 5876 5876 5877 5877
5877 5876 5875 5874 5873 5872 5872 5871 5870 5870 5870 5870 5869 5869 5869 5868 5868 5868 5868 5868 5868 5867 5867 5866 5867 5867 5867 5868 5868 5869 5869 5870 5870 5871 5871 5872 5873 5873 5873 5874 5874 5875 5875
5876 5875 5874 5873 5873 5872 5871 5870 5870 5869 5869 5868 5868 5868 5867 5867 5867 5867 5866 5866 5866 5866 5866 5865 5866 5866 5866 5866 5867 5867 5867 5868 5868 5869 5870 5870 5870 5871 5871 5872 5872 5872 5873
5875 5875 5874 5873 5872 5871 5870 5869 5869 5868 5867 5867 5867 5866 5866 5866 5866 5865 5865 5865 5865 5864 5864 5864 5864 5864 5864 5865 5865 5865 5866 5866 5866 5867 5868 5868 5868 5868 5869 5869 5869 5870 5870
5875 5874 5873 5872 5871 5870 5869 5868 5868 5867 5866 5866 5866 5865 5865 5865 5864 5864 5864 5864 5863 5863 5862 5862 5862 5862 5863 5863 5863 5863 5864 5864 5864 5865 5865 5866 5866 5866 5866 5866 5867 5867 5867
5875 5874 5872 5872 5870 5869 5869 5868 5867 5866 5865 5865 5865 5864 5864 5863 5863 5863 5863 5862 5862 5861 5861 5860 5860 5860 5860 5861 5861 5861 5862 5862 5862 5863 5863 5863 5863 5863 5863 5863 5863 5864 5864
5874 5873 5872 5871 5870 5869 5868 5867 5866 5865 5864 5864 5863 5863 5862 5862 5862 5861 5861 5861 5860 5860 5860 5859 5859 5859 5859 5859 5859 5859 5859 5859 5860 5860 5860 5860 5860 5860 5860 5860 5860 5861 5861
5873 5872 5871 5870 5869 5868 5867 5866 5865 5864 5863 5863 5862 5862 5861 5861 5860 5860 5860 5860 5859 5858 5858 5857 5857 5857 5857 5857 5856 5857 5857 5857 5857 5857 5857 5857 5857 5857 5857 5857 5857 5858 5858
5873 5872 5870 5869 5868 5867 5866 5865 5864 5863 5863 5862 5861 5861 5860 5860 5859 5859 5858 5858 5857 5857 5856 5856 5855 5855 5855 5855 5855 5855 5855 5854 5854 5854 5854 5854 5855 5855 5854 5854 5854 5855 5855
5872 5871 5870 5869 5867 5866 5865 5864 5863 5862 5862 5861 5860 5859 5859 5858 5858 5858 5857 5856 5856 5855 5854 5854 5854 5853 5853 5853 5853 5853 5852 5852 5852 5852 5852 5852 5852 5852 5851 5852 5852 5852 5852
5871 5870 5869 5868 5867 5865 5864 5863 5863 5861 5861 5860 5859 5858 5858 5857 5857 5856 5856 5855 5854 5853 5853 5853 5852 5852 5851 5851 5851 5851 5851 5850 5850 5850 5849 5849 5849 5849 5849 5849 5849 5849 5849
5871 5869 5868 5867 5866 5865 5864 5863 5862 5861 5860 5859 5858 5857 5857 5856 5855 5855 5854 5854 5853 5852 5852 5851 5851 5850 5850 5850 5850 5849 5849 5849 5848 5848 5847 5847 5847 5846 5846 5846 5846 5846 5846
5870 5869 5868 5867 5866 5864 5863 5862 5861 5860 5859 5858 5857 5856 5856 5855 5854 5854 5853 5853 5852 5851 5851 5850 5850 5849 5849 5848 5848 5848 5847 5847 5847 5846 5846 5845 5844 5844 5844 5844 5843 5843 5843
5869 5868 5867 5866 5865 5864 5863 5861 5860 5859 5858 5857 5856 5855 5854 5853 5853 5852 5852 5851 5851 5850 5850 5849 5848 5848 5847 5847 5847 5846 5846 5846 5845 5844 5844 5843 5842 5842 5841 5841 5841 5840 5840
5868 5867 5866 5865 5864 5863 5862 5861 5859 5858 5857 5856 5855 5854 5853 5852 5851 5851 5850 5850 5849 5849 5849 5848 5847 5847 5846 5846 5845 5845 5844 5844 5843 5842 5841 5841 5840 5840 5839 5839 5838 5838 5837
5867 5866 5865 5864 5863 5862 5861 5860 5858 5857 5856 5855 5854 5853 5852 5851 5850 5849 5849 5848 5848 5848 5848 5847 5846 5846 5845 5844 5844 5843 5843 5842 5841 5840 5839 5839 5838 5837 5837 5836 5835 5835 5835
5866 5865 5864 5863 5862 5861 5860 5859 5857 5856 5855 5854 5853 5852 5851 5849 5849 5848 5847 5847 5847 5847 5846 5846 5845 5844 5844 5843 5842 5842 5841 5841 5839 5838 5837 5837 5836 5835 5834 5833 5833 5832 5832
5865 5864 5863 5862 5861 5860 5859 5858 5856 5855 5854 5853 5851 5851 5849 5848 5847 5847 5846 5846 5845 5845 5844 5844 5843 5843 5842 5841 5841 5840 5839 5838 5837 5836 5835 5834 5833 5833 5832 5831 5830 5829 5828
5863 5862 5861 5860 5859 5859 5857 5856 5855 5854 5853 5851 5850 5849 5848 5847 5846 5845 5844 5844 5844 5843 5843 5842 5841 5841 5840 5839 5838 5837 5837 5836 5835 5834 5833 5832 5831 5830 5829 5828 5827 5826 5825
5861 5860 5860 5859 5858 5857 5856 5855 5853 5852 5851 5850 5849 5848 5847 5846 5845 5844 5843 5843 5842 5841 5841 5840 5840 5839 5838 5837 5836 5835 5834 5833 5832 5831 5831 5830 5829 5828 5826 5825 5824 5824 5823
5859 5859 5858 5857 5856 5855 5854 5853 5851 5850 5849 5848 5847 5846 5845 5844 5844 5843 5842 5841 5841 5840 5839 5838 5838 5836 5835 5834 5834 5833 5832 5830 5829 5828 5827 5827 5826 5825 5824 5822 5821 5821 5820